Vineland (AU8), Ontario

8:13 PM EDT on July 23, 2017 (GMT -0400)
Vineland (AU8)

Weather History for CXVN - October, 2012

Change the Weather History Date:

Tuesday, October 2, 2012

  Actual Average (CYSN) Record (CYSN)
Temperature  
Mean Temperature 56 °F -  
Max Temperature 63 °F 62 °F 78 °F (2002)
Min Temperature 50 °F 47 °F 37 °F (2003)
Degree Days  
Heating Degree Days 8    
Growing Degree Days 6 (Base 50)    
Moisture  
Dew Point 54 °F    
Average Humidity 85    
Maximum Humidity 92    
Minimum Humidity 71    
Precipitation  
Precipitation 0.00 in - - ()
Sea Level Pressure  
Sea Level Pressure 29.87 in    
Wind  
Wind Speed 2 mph ()    
Max Wind Speed 8 mph    
Max Gust Speed -    
Averages and records for this station are not official NWS values.
T = Trace of Precipitation, MM = Missing Value Source: Averaged Metar Reports

Daily Weather History Graph

Daily Weather History Graph

Search for Another Location

Airport or City:

Trip Planner

Search our weather history database for the weather conditions in past years. The results will help you decide how hot, cold, wet, or windy it might be!

Date:

Astronomy

Oct. 02, 2012 Rise Set
Actual Time 7:16 AM EDT 6:56 PM EDT
Civil Twilight 6:48 AM EDT 7:24 PM EDT
Nautical Twilight 6:15 AM EDT 7:57 PM EDT
Astronomical Twilight 5:41 AM EDT 8:30 PM EDT
Moon 8:02 PM EDT (10/2) 9:47 AM EDT (10/2)
Length of Visible Light 12h 36m
Length of Day
11h 39m
Waning Gibbous, 94% of the Moon is Illuminated
Oct 2
Waning Gibbous
Oct 8
Last Quarter
Oct 15
New
Oct 21
First Quarter
Oct 29
Full

Hourly Weather History & Observations

Time (EDT) Temp. Dew Point Humidity Pressure Visibility Wind Dir Wind Speed Gust Speed Precip Events Conditions
12:00 AM 51.8 °F 48.4 °F 88% 29.87 in - West 1.2 mph - N/A   Unknown
1:00 AM 51.8 °F 48.4 °F 88% 29.86 in - South 1.2 mph - N/A   Unknown
2:00 AM 52 °F 49 °F 85% 29.86 in - South 1.2 mph - -  
2:00 AM 52.0 °F 48.9 °F 89% 29.86 in - South 1.2 mph - N/A   Unknown
3:00 AM 52.7 °F 49.8 °F 90% 29.85 in - NW 1.2 mph - N/A   Unknown
4:00 AM 54.0 °F 51.1 °F 90% 29.84 in - South 1.2 mph - N/A   Unknown
5:00 AM 54.1 °F 51.4 °F 91% 29.84 in - SSW 1.2 mph - N/A   Unknown
6:00 AM 55.0 °F 52.0 °F 89% 29.85 in - SSW 2.3 mph - N/A   Unknown
7:00 AM 55.4 °F 52.5 °F 90% 29.85 in - SW 1.2 mph - N/A   Unknown
8:00 AM 56 °F 53 °F 86% 29.86 in - WSW 1.2 mph - -  
8:00 AM 55.9 °F 53.1 °F 90% 29.86 in - WSW 1.2 mph - N/A   Unknown
9:00 AM 57.0 °F 50.9 °F 80% 29.87 in - South 3.5 mph - N/A   Unknown
10:00 AM 59.4 °F 52.0 °F 77% 29.87 in - SSE 1.2 mph - N/A   Unknown
11:00 AM 57.9 °F 53.4 °F 85% 29.87 in - NNW 2.3 mph - N/A   Unknown
12:00 PM 59.7 °F 54.1 °F 82% 29.88 in - NNW 3.5 mph - N/A   Unknown
1:00 PM 60.1 °F 54.7 °F 82% 29.88 in - North 4.6 mph - N/A   Unknown
2:00 PM 62 °F 55 °F 71% 29.87 in - NNE 5.8 mph - -  
2:00 PM 61.7 °F 54.9 °F 78% 29.87 in - NNE 5.8 mph - N/A   Unknown
3:00 PM 62.2 °F 55.2 °F 78% 29.86 in - NE 5.8 mph - N/A   Unknown
4:00 PM 62.1 °F 55.4 °F 79% 29.86 in - ENE 5.8 mph - N/A   Unknown
5:00 PM 61.0 °F 56.5 °F 85% 29.87 in - ENE 6.9 mph - N/A   Unknown
6:00 PM 60.4 °F 56.3 °F 86% 29.88 in - ENE 5.8 mph - N/A   Unknown
7:00 PM 60.6 °F 57.0 °F 88% 29.90 in - East 5.8 mph - N/A   Unknown
8:00 PM 61 °F 57 °F 83% 29.91 in - East 3.5 mph - -  
8:00 PM 61.2 °F 57.2 °F 87% 29.91 in - East 3.5 mph - N/A   Unknown
9:00 PM 61.2 °F 57.7 °F 88% 29.92 in - East 4.6 mph - N/A   Unknown
10:00 PM 61.2 °F 58.3 °F 90% 29.92 in - East 8.1 mph - N/A   Unknown
11:00 PM 61.0 °F 58.6 °F 92% 29.92 in - East 5.8 mph - N/A   Unknown